Location: Unspecified
(45.0173°N, 35.2345°E)
Time: 04:33:51
(UTC+02:00)

ISS - Pass Details

Date: 25 January 2026
Orbit: 414 x 429 km, 51.6° (Epoch: 7 February)

Event Time Altitude Azimuth Distance (km) Brightness Sun altitude
Rises 18:11:14 0° 300° (WNW) 2,366 0.9 -16.6°
Reaches altitude 10° 18:13:22 10° 305° (NW) 1,503 -0.3 -17.0°
Maximum altitude 18:16:41 53° 23° (NNE) 524 -3.5 -17.6°
Enters shadow 18:17:01 50° 49° (NE) 544 -3.6 -17.6°
